| time (UTC) | temp C | wind direction | speed KPH | gust KPH | rain 1hr cm | rain 24hr cm | rain mn cm | humidity % | barometer mb |
| 20260903131738 | 28 | 129 | 0.0 | 0.0 | 0.00 | 0.00 | 0.00 | 32 | 1032.5 |
| 20260903131237 | 28 | 162 | 1.6 | 1.6 | 0.00 | 0.00 | 0.00 | 30 | 1032.2 |
| 20260903130737 | 27 | 222 | 3.2 | 3.2 | 0.00 | 0.00 | 0.00 | 35 | 1032.2 |
| 20260903130239 | 27 | 60 | 0.0 | 0.0 | 0.00 | 0.00 | 0.00 | 34 | 1032.2 |
| 20260903125737 | 28 | 174 | 0.0 | 0.0 | 0.00 | 0.00 | 0.00 | 35 | 1032.2 |
| 20260903125237 | 28 | 348 | 3.2 | 3.2 | 0.00 | 0.00 | 0.00 | 37 | 1032.2 |
| 20260903124738 | 28 | 170 | 0.0 | 0.0 | 0.00 | 0.00 | 0.00 | 31 | 1032.2 |
| 20260903124245 | 28 | 169 | 3.2 | 3.2 | 0.00 | 0.00 | 0.00 | 33 | 1032.5 |
| 20260903123737 | 27 | 148 | 0.0 | 0.0 | 0.00 | 0.00 | 0.00 | 37 | 1032.5 |
| 20260903123236 | 27 | 30 | 0.0 | 0.0 | 0.00 | 0.00 | 0.00 | 36 | 1032.5 |
| 20260903122739 | 27 | 148 | 0.0 | 0.0 | 0.00 | 0.00 | 0.00 | 35 | 1032.8 |
| 20260903122236 | 27 | 68 | 3.2 | 3.2 | 0.00 | 0.00 | 0.00 | 34 | 1032.8 |
| 20260903121739 | 27 | 169 | 0.0 | 0.0 | 0.00 | 0.00 | 0.00 | 36 | 1032.8 |
| 20260903121236 | 27 | 47 | 3.2 | 3.2 | 0.00 | 0.00 | 0.00 | 35 | 1032.5 |
| 20260903120736 | 27 | 61 | 3.2 | 3.2 | 0.00 | 0.00 | 0.00 | 34 | 1032.5 |
| 20260903120240 | 28 | 183 | 0.0 | 0.0 | 0.00 | 0.00 | 0.00 | 35 | 1032.5 |
| 20260903115737 | 28 | 354 | 0.0 | 0.0 | 0.00 | 0.00 | 0.00 | 36 | 1033.2 |
| 20260903115237 | 28 | 276 | 0.0 | 0.0 | 0.00 | 0.00 | 0.00 | 35 | 1033.2 |
| 20260903114736 | 27 | 228 | 0.0 | 0.0 | 0.00 | 0.00 | 0.00 | 36 | 1033.2 |
| 20260903114237 | 27 | 360 | 1.6 | 1.6 | 0.00 | 0.00 | 0.00 | 38 | 1033.2 |
| 20260903113736 | 27 | 120 | 0.0 | 0.0 | 0.00 | 0.00 | 0.00 | 37 | 1033.2 |
| 20260903113238 | 27 | 125 | 0.0 | 0.0 | 0.00 | 0.00 | 0.00 | 38 | 1033.2 |
| 20260903112736 | 28 | 264 | 3.2 | 3.2 | 0.00 | 0.00 | 0.00 | 39 | 1033.2 |
| 20260903112236 | 27 | 132 | 3.2 | 3.2 | 0.00 | 0.00 | 0.00 | 38 | 1033.2 |
| 20260903111737 | 27 | 118 | 0.0 | 0.0 | 0.00 | 0.00 | 0.00 | 39 | 1033.2 |
| 20260903111236 | 27 | 114 | 0.0 | 0.0 | 0.00 | 0.00 | 0.00 | 40 | 1033.2 |
| 20260903110737 | 27 | 264 | 6.4 | 6.4 | 0.00 | 0.00 | 0.00 | 41 | 1033.2 |
| 20260903110237 | 28 | 258 | 3.2 | 3.2 | 0.00 | 0.00 | 0.00 | 39 | 1033.2 |
| 20260903105738 | 28 | 174 | 3.2 | 3.2 | 0.00 | 0.00 | 0.00 | 37 | 1033.2 |
| 20260903105238 | 27 | 354 | 3.2 | 3.2 | 0.00 | 0.00 | 0.00 | 37 | 1033.2 |
| 20260903104737 | 26 | 176 | 3.2 | 3.2 | 0.00 | 0.00 | 0.00 | 39 | 1033.2 |
| 20260903104236 | 26 | 241 | 3.2 | 3.2 | 0.00 | 0.00 | 0.00 | 43 | 1033.5 |
| 20260903103737 | 27 | 246 | 0.0 | 0.0 | 0.00 | 0.00 | 0.00 | 40 | 1033.5 |
| 20260903103236 | 27 | 132 | 1.6 | 1.6 | 0.00 | 0.00 | 0.00 | 42 | 1033.5 |
| 20260903102736 | 26 | 288 | 0.0 | 0.0 | 0.00 | 0.00 | 0.00 | 41 | 1033.9 |
| 20260903102237 | 26 | 186 | 0.0 | 0.0 | 0.00 | 0.00 | 0.00 | 44 | 1033.9 |
| 20260903101736 | 27 | 204 | 0.0 | 0.0 | 0.00 | 0.00 | 0.00 | 37 | 1033.9 |
| 20260903101236 | 26 | 18 | 1.6 | 1.6 | 0.00 | 0.00 | 0.00 | 42 | 1033.9 |
| 20260903100736 | 25 | 155 | 0.0 | 0.0 | 0.00 | 0.00 | 0.00 | 44 | 1033.9 |
| 20260903100237 | 26 | 92 | 3.2 | 3.2 | 0.00 | 0.00 | 0.00 | 41 | 1033.9 |
| 20260903095737 | 27 | 30 | 1.6 | 1.6 | 0.00 | 0.00 | 0.00 | 41 | 1033.9 |
| 20260903095236 | 27 | 342 | 0.0 | 0.0 | 0.00 | 0.00 | 0.00 | 38 | 1033.9 |
| 20260903094737 | 26 | 294 | 3.2 | 3.2 | 0.00 | 0.00 | 0.00 | 38 | 1033.9 |
| 20260903094240 | 25 | 192 | 0.0 | 0.0 | 0.00 | 0.00 | 0.00 | 45 | 1034.2 |
| 20260903093737 | 25 | 90 | 3.2 | 3.2 | 0.00 | 0.00 | 0.00 | 42 | 1034.2 |
| 20260903093236 | 27 | 253 | 0.0 | 0.0 | 0.00 | 0.00 | 0.00 | 42 | 1034.2 |
| 20260903092738 | 26 | 337 | 3.2 | 3.2 | 0.00 | 0.00 | 0.00 | 42 | 1033.9 |
| 20260903092239 | 26 | 155 | 3.2 | 3.2 | 0.00 | 0.00 | 0.00 | 45 | 1033.9 |
| 20260903091737 | 26 | 180 | 3.2 | 3.2 | 0.00 | 0.00 | 0.00 | 44 | 1033.9 |
| 20260903091237 | 26 | 336 | 3.2 | 3.2 | 0.00 | 0.00 | 0.00 | 46 | 1034.2 |
| 20260903090738 | 26 | 252 | 0.0 | 0.0 | 0.00 | 0.00 | 0.00 | 45 | 1034.2 |
| 20260903090236 | 26 | 68 | 6.4 | 6.4 | 0.00 | 0.00 | 0.00 | 43 | 1034.2 |
| 20260903085738 | 26 | 158 | 1.6 | 1.6 | 0.00 | 0.00 | 0.00 | 44 | 1034.2 |
| 20260903085237 | 26 | 258 | 4.8 | 4.8 | 0.00 | 0.00 | 0.00 | 44 | 1034.2 |
| 20260903084736 | 25 | 192 | 3.2 | 3.2 | 0.00 | 0.00 | 0.00 | 46 | 1034.2 |
| 20260903084237 | 26 | 252 | 0.0 | 0.0 | 0.00 | 0.00 | 0.00 | 46 | 1034.2 |
| 20260903083736 | 25 | 198 | 0.0 | 0.0 | 0.00 | 0.00 | 0.00 | 45 | 1034.2 |
| 20260903083236 | 25 | 294 | 1.6 | 1.6 | 0.00 | 0.00 | 0.00 | 52 | 1034.2 |
| 20260903082737 | 26 | 40 | 0.0 | 0.0 | 0.00 | 0.00 | 0.00 | 54 | 1034.2 |
| 20260903082236 | 26 | 150 | 0.0 | 0.0 | 0.00 | 0.00 | 0.00 | 47 | 1034.2 |
| 20260903081736 | 25 | 282 | 0.0 | 0.0 | 0.00 | 0.00 | 0.00 | 45 | 1034.2 |
| 20260903081239 | 25 | 198 | 0.0 | 0.0 | 0.00 | 0.00 | 0.00 | 50 | 1034.2 |
| 20260903080738 | 25 | 222 | 0.0 | 0.0 | 0.00 | 0.00 | 0.00 | 55 | 1034.2 |
| 20260903080237 | 26 | 84 | 3.2 | 3.2 | 0.00 | 0.00 | 0.00 | 50 | 1034.2 |
| 20260903075736 | 26 | 12 | 0.0 | 0.0 | 0.00 | 0.00 | 0.00 | 50 | 1033.9 |
| 20260903075236 | 25 | 162 | 0.0 | 0.0 | 0.00 | 0.00 | 0.00 | 48 | 1033.9 |
| 20260903074738 | 25 | 253 | 3.2 | 3.2 | 0.00 | 0.00 | 0.00 | 52 | 1033.9 |
| 20260903074238 | 25 | 342 | 0.0 | 0.0 | 0.00 | 0.00 | 0.00 | 55 | 1033.9 |
| 20260903073736 | 25 | 192 | 0.0 | 0.0 | 0.00 | 0.00 | 0.00 | 54 | 1033.9 |
| 20260903073236 | 25 | 210 | 0.0 | 0.0 | 0.00 | 0.00 | 0.00 | 52 | 1033.9 |
| 20260903072737 | 25 | 30 | 0.0 | 0.0 | 0.00 | 0.00 | 0.00 | 54 | 1034.2 |
| 20260903072236 | 25 | 90 | 0.0 | 0.0 | 0.00 | 0.00 | 0.00 | 55 | 1034.2 |
| 20260903071736 | 25 | 162 | 0.0 | 0.0 | 0.00 | 0.00 | 0.00 | 55 | 1034.2 |
| 20260903071237 | 25 | 168 | 0.0 | 0.0 | 0.00 | 0.00 | 0.00 | 54 | 1034.2 |
| 20260903070737 | 25 | 144 | 0.0 | 0.0 | 0.00 | 0.00 | 0.00 | 54 | 1034.2 |
| 20260903070237 | 25 | 182 | 0.0 | 0.0 | 0.00 | 0.00 | 0.00 | 54 | 1034.2 |
| 20260903065737 | 25 | 144 | 0.0 | 0.0 | 0.00 | 0.00 | 0.00 | 53 | 1034.2 |
| 20260903065236 | 24 | 150 | 0.0 | 0.0 | 0.00 | 0.00 | 0.00 | 56 | 1034.2 |
| 20260903064736 | 24 | 150 | 0.0 | 0.0 | 0.00 | 0.00 | 0.00 | 54 | 1034.2 |
| 20260903064237 | 23 | 138 | 0.0 | 0.0 | 0.00 | 0.00 | 0.00 | 56 | 1033.9 |
| 20260903063736 | 24 | 135 | 0.0 | 0.0 | 0.00 | 0.00 | 0.00 | 56 | 1033.9 |
| 20260903063240 | 23 | 158 | 0.0 | 0.0 | 0.00 | 0.00 | 0.00 | 55 | 1033.9 |
| 20260903062736 | 25 | 163 | 0.0 | 0.0 | 0.00 | 0.00 | 0.00 | 53 | 1033.9 |
| 20260903062237 | 24 | 162 | 0.0 | 0.0 | 0.00 | 0.00 | 0.00 | 54 | 1033.9 |
| 20260903061747 | 24 | 186 | 0.0 | 0.0 | 0.00 | 0.00 | 0.00 | 55 | 1033.9 |
| 20260903061237 | 23 | 169 | 0.0 | 0.0 | 0.00 | 0.00 | 0.00 | 57 | 1033.9 |
| 20260903060736 | 23 | 170 | 0.0 | 0.0 | 0.00 | 0.00 | 0.00 | 58 | 1033.9 |
| 20260903060237 | 23 | 165 | 0.0 | 0.0 | 0.00 | 0.00 | 0.00 | 53 | 1033.9 |
| 20260903055736 | 21 | 162 | 0.0 | 0.0 | 0.00 | 0.00 | 0.00 | 58 | 1033.9 |
| 20260903055237 | 20 | 162 | 0.0 | 0.0 | 0.00 | 0.00 | 0.00 | 60 | 1033.9 |
| 20260903054737 | 19 | 198 | 0.0 | 0.0 | 0.00 | 0.00 | 0.00 | 62 | 1033.9 |
| 20260903054236 | 18 | 276 | 0.0 | 0.0 | 0.00 | 0.00 | 0.00 | 70 | 1033.9 |
| 20260903053736 | 16 | 173 | 0.0 | 0.0 | 0.00 | 0.00 | 0.00 | 72 | 1033.9 |
| 20260903053237 | 16 | 221 | 0.0 | 0.0 | 0.00 | 0.00 | 0.00 | 80 | 1033.9 |
| 20260903052736 | 16 | 55 | 0.0 | 0.0 | 0.00 | 0.00 | 0.00 | 80 | 1033.5 |
| 20260903052236 | 16 | 55 | 0.0 | 0.0 | 0.00 | 0.00 | 0.00 | 79 | 1033.5 |
| 20260903051736 | 16 | 302 | 0.0 | 0.0 | 0.00 | 0.00 | 0.00 | 78 | 1033.5 |
| 20260903051237 | 16 | 132 | 0.0 | 0.0 | 0.00 | 0.00 | 0.00 | 78 | 1033.5 |
| 20260903050736 | 16 | 308 | 0.0 | 0.0 | 0.00 | 0.00 | 0.00 | 80 | 1033.5 |
| 20260903050236 | 15 | 96 | 0.0 | 0.0 | 0.00 | 0.00 | 0.00 | 81 | 1033.5 |
| 20260903045737 | 15 | 96 | 0.0 | 0.0 | 0.00 | 0.00 | 0.00 | 80 | 1033.2 |
| 20260903045239 | 15 | 12 | 0.0 | 0.0 | 0.00 | 0.00 | 0.00 | 80 | 1033.2 |
| 20260903044736 | 15 | 312 | 0.0 | 0.0 | 0.00 | 0.00 | 0.00 | 79 | 1033.2 |
| 20260903044237 | 15 | 72 | 0.0 | 0.0 | 0.00 | 0.00 | 0.00 | 80 | 1033.2 |
| 20260903043736 | 15 | 112 | 0.0 | 0.0 | 0.00 | 0.00 | 0.00 | 80 | 1033.2 |
| 20260903043237 | 15 | 124 | 0.0 | 0.0 | 0.00 | 0.00 | 0.00 | 79 | 1033.2 |
| 20260903042736 | 16 | 74 | 0.0 | 0.0 | 0.00 | 0.00 | 0.00 | 77 | 1033.2 |
| 20260903042236 | 16 | 95 | 0.0 | 0.0 | 0.00 | 0.00 | 0.00 | 75 | 1033.2 |
| 20260903041736 | 16 | 37 | 0.0 | 0.0 | 0.00 | 0.00 | 0.00 | 74 | 1033.2 |
| 20260903041236 | 16 | 312 | 0.0 | 0.0 | 0.00 | 0.00 | 0.00 | 74 | 1032.8 |
| 20260903040736 | 17 | 222 | 0.0 | 0.0 | 0.00 | 0.00 | 0.00 | 74 | 1032.8 |
| 20260903040237 | 17 | 348 | 0.0 | 0.0 | 0.00 | 0.00 | 0.00 | 73 | 1032.8 |
| 20260903035737 | 16 | 336 | 0.0 | 0.0 | 0.00 | 0.00 | 0.00 | 73 | 1033.2 |
| 20260903035237 | 16 | 354 | 0.0 | 0.0 | 0.00 | 0.00 | 0.00 | 75 | 1033.2 |
| 20260903034736 | 16 | 348 | 0.0 | 0.0 | 0.00 | 0.00 | 0.00 | 75 | 1033.2 |
| 20260903034236 | 16 | 342 | 0.0 | 0.0 | 0.00 | 0.00 | 0.00 | 76 | 1032.8 |
| 20260903033737 | 16 | 6 | 0.0 | 0.0 | 0.00 | 0.00 | 0.00 | 77 | 1032.8 |
| 20260903033237 | 16 | 336 | 0.0 | 0.0 | 0.00 | 0.00 | 0.00 | 77 | 1032.8 |
| 20260903032736 | 16 | 330 | 0.0 | 0.0 | 0.00 | 0.00 | 0.00 | 78 | 1033.2 |
| 20260903032236 | 16 | 26 | 0.0 | 0.0 | 0.00 | 0.00 | 0.00 | 77 | 1033.2 |
| 20260903031736 | 16 | 353 | 0.0 | 0.0 | 0.00 | 0.00 | 0.00 | 77 | 1033.2 |
| 20260903031236 | 16 | 6 | 0.0 | 0.0 | 0.00 | 0.00 | 0.00 | 78 | 1032.8 |
| 20260903030736 | 16 | 156 | 0.0 | 0.0 | 0.00 | 0.00 | 0.00 | 78 | 1032.8 |
| 20260903030238 | 16 | 336 | 0.0 | 0.0 | 0.00 | 0.00 | 0.00 | 76 | 1032.8 |
| 20260903025736 | 16 | 354 | 0.0 | 0.0 | 0.00 | 0.00 | 0.00 | 75 | 1033.2 |
| 20260903025236 | 17 | 18 | 0.0 | 0.0 | 0.00 | 0.00 | 0.00 | 76 | 1033.2 |
| 20260903024736 | 17 | 360 | 0.0 | 0.0 | 0.00 | 0.00 | 0.00 | 74 | 1033.2 |
| 20260903024238 | 17 | 36 | 0.0 | 0.0 | 0.00 | 0.00 | 0.00 | 74 | 1033.2 |
| 20260903023737 | 17 | 340 | 0.0 | 0.0 | 0.00 | 0.00 | 0.00 | 74 | 1033.2 |
| 20260903023237 | 17 | 353 | 0.0 | 0.0 | 0.00 | 0.00 | 0.00 | 74 | 1033.2 |
| 20260903022736 | 17 | 336 | 0.0 | 0.0 | 0.00 | 0.00 | 0.00 | 75 | 1033.2 |
| 20260903022236 | 17 | 134 | 0.0 | 0.0 | 0.00 | 0.00 | 0.00 | 71 | 1033.2 |
| 20260903021737 | 17 | 292 | 0.0 | 0.0 | 0.00 | 0.00 | 0.00 | 72 | 1033.2 |
| 20260903021237 | 17 | 324 | 0.0 | 0.0 | 0.00 | 0.00 | 0.00 | 72 | 1033.2 |
| 20260903020737 | 17 | 318 | 0.0 | 0.0 | 0.00 | 0.00 | 0.00 | 74 | 1033.2 |
| 20260903020236 | 17 | 270 | 0.0 | 0.0 | 0.00 | 0.00 | 0.00 | 73 | 1033.2 |
| 20260903015736 | 17 | 150 | 0.0 | 0.0 | 0.00 | 0.00 | 0.00 | 71 | 1033.2 |
| 20260903015236 | 17 | 354 | 0.0 | 0.0 | 0.00 | 0.00 | 0.00 | 71 | 1033.2 |
| 20260903014736 | 17 | 30 | 0.0 | 0.0 | 0.00 | 0.00 | 0.00 | 71 | 1033.2 |
| 20260903014237 | 17 | 246 | 0.0 | 0.0 | 0.00 | 0.00 | 0.00 | 71 | 1033.2 |
| 20260903013737 | 17 | 319 | 0.0 | 0.0 | 0.00 | 0.00 | 0.00 | 71 | 1033.2 |
| 20260903013237 | 17 | 24 | 0.0 | 0.0 | 0.00 | 0.00 | 0.00 | 74 | 1033.2 |
| 20260903012737 | 17 | 135 | 0.0 | 0.0 | 0.00 | 0.00 | 0.00 | 73 | 1033.2 |
| 20260903012237 | 17 | 269 | 0.0 | 0.0 | 0.00 | 0.00 | 0.00 | 72 | 1033.2 |
| 20260903011736 | 17 | 221 | 0.0 | 0.0 | 0.00 | 0.00 | 0.00 | 71 | 1033.2 |
| 20260903011237 | 17 | 36 | 0.0 | 0.0 | 0.00 | 0.00 | 0.00 | 70 | 1033.2 |
| 20260903010737 | 17 | 36 | 0.0 | 0.0 | 0.00 | 0.00 | 0.00 | 70 | 1033.2 |
| 20260903010236 | 17 | 324 | 0.0 | 0.0 | 0.00 | 0.00 | 0.00 | 72 | 1033.2 |
| 20260903005737 | 17 | 300 | 0.0 | 0.0 | 0.00 | 0.00 | 0.00 | 72 | 1033.2 |
| 20260903005236 | 17 | 306 | 0.0 | 0.0 | 0.00 | 0.00 | 0.00 | 71 | 1033.2 |
| 20260903004736 | 17 | 31 | 0.0 | 0.0 | 0.00 | 0.00 | 0.00 | 71 | 1033.2 |
| 20260903004237 | 17 | 294 | 0.0 | 0.0 | 0.00 | 0.00 | 0.00 | 69 | 1033.2 |
| 20260903003737 | 17 | 46 | 0.0 | 0.0 | 0.00 | 0.00 | 0.00 | 70 | 1033.2 |
| 20260903003236 | 17 | 300 | 0.0 | 0.0 | 0.00 | 0.00 | 0.00 | 70 | 1033.2 |
| 20260903002736 | 17 | 116 | 0.0 | 0.0 | 0.00 | 0.00 | 0.00 | 70 | 1032.8 |
| 20260903002236 | 18 | 249 | 0.0 | 0.0 | 0.00 | 0.00 | 0.00 | 68 | 1032.8 |
| 20260903001736 | 18 | 37 | 3.2 | 3.2 | 0.00 | 0.00 | 0.00 | 67 | 1032.8 |
| 20260903001237 | 18 | 306 | 1.6 | 1.6 | 0.00 | 0.00 | 0.00 | 65 | 1033.2 |
| 20260903000736 | 18 | 305 | 0.0 | 0.0 | 0.00 | 0.00 | 0.00 | 67 | 1033.2 |
| 20260903000237 | 18 | 18 | 0.0 | 0.0 | 0.00 | 0.00 | 0.00 | 67 | 1033.2 |
| 20260902235737 | 18 | 253 | 0.0 | 0.0 | 0.00 | 0.00 | 0.00 | 67 | 1033.2 |
| 20260902235237 | 18 | 282 | 0.0 | 0.0 | 0.00 | 0.00 | 0.00 | 65 | 1033.2 |
| 20260902234737 | 18 | 29 | 0.0 | 0.0 | 0.00 | 0.00 | 0.00 | 67 | 1033.2 |
| 20260902234237 | 18 | 342 | 3.2 | 3.2 | 0.00 | 0.00 | 0.00 | 65 | 1032.8 |
| 20260902233736 | 18 | 282 | 0.0 | 0.0 | 0.00 | 0.00 | 0.00 | 64 | 1032.8 |
| 20260902233236 | 18 | 295 | 0.0 | 0.0 | 0.00 | 0.00 | 0.00 | 63 | 1032.8 |
| 20260902232737 | 18 | 307 | 0.0 | 0.0 | 0.00 | 0.00 | 0.00 | 66 | 1033.2 |
| 20260902232236 | 18 | 10 | 3.2 | 3.2 | 0.00 | 0.00 | 0.00 | 63 | 1033.2 |
| 20260902231736 | 18 | 348 | 0.0 | 0.0 | 0.00 | 0.00 | 0.00 | 67 | 1033.2 |
| 20260902231236 | 18 | 316 | 3.2 | 3.2 | 0.00 | 0.00 | 0.00 | 64 | 1033.2 |
| 20260902230736 | 18 | 27 | 0.0 | 0.0 | 0.00 | 0.00 | 0.00 | 64 | 1033.2 |
| 20260902230236 | 18 | 24 | 0.0 | 0.0 | 0.00 | 0.00 | 0.00 | 64 | 1033.2 |
| 20260902225738 | 18 | 72 | 0.0 | 0.0 | 0.00 | 0.00 | 0.00 | 63 | 1033.2 |
| 20260902225239 | 18 | 116 | 0.0 | 0.0 | 0.00 | 0.00 | 0.00 | 61 | 1033.2 |
| 20260902224736 | 19 | 264 | 3.2 | 3.2 | 0.00 | 0.00 | 0.00 | 61 | 1033.2 |
| 20260902224236 | 19 | 326 | 3.2 | 3.2 | 0.00 | 0.00 | 0.00 | 58 | 1033.2 |
| 20260902223736 | 18 | 347 | 0.0 | 0.0 | 0.00 | 0.00 | 0.00 | 56 | 1033.2 |
| 20260902223236 | 19 | 354 | 0.0 | 0.0 | 0.00 | 0.00 | 0.00 | 56 | 1033.2 |
| 20260902222737 | 19 | 358 | 0.0 | 0.0 | 0.00 | 0.00 | 0.00 | 59 | 1032.8 |
| 20260902222237 | 19 | 341 | 0.0 | 0.0 | 0.00 | 0.00 | 0.00 | 60 | 1032.8 |
| 20260902221736 | 18 | 4 | 0.0 | 0.0 | 0.00 | 0.00 | 0.00 | 58 | 1032.8 |
| 20260902221236 | 19 | 286 | 0.0 | 0.0 | 0.00 | 0.00 | 0.00 | 59 | 1032.8 |
| 20260902220737 | 18 | 9 | 0.0 | 0.0 | 0.00 | 0.00 | 0.00 | 58 | 1032.8 |
| 20260902220237 | 19 | 293 | 0.0 | 0.0 | 0.00 | 0.00 | 0.00 | 56 | 1032.8 |
| 20260902215736 | 19 | 340 | 3.2 | 3.2 | 0.00 | 0.00 | 0.03 | 55 | 1032.8 |
| 20260902215237 | 19 | 353 | 0.0 | 0.0 | 0.00 | 0.00 | 0.03 | 59 | 1032.8 |
| 20260902214736 | 19 | 225 | 0.0 | 0.0 | 0.00 | 0.00 | 0.03 | 59 | 1032.8 |
| 20260902214236 | 19 | 316 | 3.2 | 3.2 | 0.00 | 0.00 | 0.03 | 58 | 1032.8 |
| 20260902213736 | 19 | 321 | 4.8 | 4.8 | 0.00 | 0.00 | 0.03 | 61 | 1032.8 |
| 20260902213236 | 19 | 354 | 0.0 | 0.0 | 0.00 | 0.00 | 0.03 | 61 | 1032.8 |
| 20260902212736 | 19 | 330 | 0.0 | 0.0 | 0.00 | 0.00 | 0.03 | 58 | 1032.8 |
| 20260902212236 | 19 | 346 | 3.2 | 3.2 | 0.00 | 0.00 | 0.03 | 57 | 1032.8 |
| 20260902211737 | 19 | 10 | 3.2 | 3.2 | 0.00 | 0.00 | 0.03 | 60 | 1032.8 |
| 20260902211236 | 19 | 283 | 0.0 | 0.0 | 0.00 | 0.00 | 0.03 | 66 | 1032.8 |
| 20260902210736 | 20 | 313 | 0.0 | 0.0 | 0.00 | 0.00 | 0.03 | 62 | 1032.8 |
| 20260902210238 | 20 | 318 | 0.0 | 0.0 | 0.00 | 0.00 | 0.03 | 61 | 1032.8 |
| 20260902205736 | 20 | 79 | 0.0 | 0.0 | 0.00 | 0.00 | 0.03 | 61 | 1032.8 |
| 20260902205236 | 19 | 295 | 0.0 | 0.0 | 0.00 | 0.00 | 0.03 | 62 | 1032.8 |
| 20260902204737 | 19 | 344 | 0.0 | 0.0 | 0.00 | 0.00 | 0.03 | 63 | 1032.8 |
| 20260902204236 | 19 | 276 | 0.0 | 0.0 | 0.00 | 0.00 | 0.03 | 65 | 1032.8 |
| 20260902203736 | 20 | 42 | 3.2 | 3.2 | 0.00 | 0.00 | 0.03 | 65 | 1032.8 |
| 20260902203237 | 20 | 276 | 4.8 | 4.8 | 0.00 | 0.00 | 0.03 | 59 | 1032.8 |
| 20260902202737 | 20 | 354 | 0.0 | 0.0 | 0.00 | 0.00 | 0.03 | 59 | 1032.5 |
| 20260902202237 | 20 | 358 | 3.2 | 3.2 | 0.00 | 0.00 | 0.03 | 65 | 1032.5 |
| 20260902201736 | 19 | 336 | 3.2 | 3.2 | 0.00 | 0.00 | 0.03 | 63 | 1032.5 |
| 20260902201241 | 19 | 303 | 3.2 | 3.2 | 0.00 | 0.00 | 0.03 | 68 | 1032.5 |
| 20260902200736 | 19 | 342 | 3.2 | 3.2 | 0.00 | 0.00 | 0.03 | 69 | 1032.5 |
| 20260902200236 | 19 | 358 | 4.8 | 4.8 | 0.00 | 0.00 | 0.03 | 73 | 1032.5 |
| 20260902195739 | 20 | 324 | 3.2 | 3.2 | 0.00 | 0.00 | 0.03 | 70 | 1032.8 |
| 20260902195236 | 20 | 73 | 0.0 | 0.0 | 0.00 | 0.00 | 0.03 | 66 | 1032.8 |
| 20260902194736 | 20 | 80 | 3.2 | 3.2 | 0.00 | 0.00 | 0.03 | 71 | 1032.8 |
| 20260902194237 | 20 | 58 | 4.8 | 4.8 | 0.00 | 0.00 | 0.03 | 70 | 1032.8 |
| 20260902193737 | 20 | 72 | 3.2 | 3.2 | 0.00 | 0.00 | 0.03 | 69 | 1032.8 |
| 20260902193237 | 21 | 326 | 3.2 | 3.2 | 0.00 | 0.00 | 0.03 | 61 | 1032.8 |
| 20260902192736 | 21 | 317 | 1.6 | 1.6 | 0.00 | 0.00 | 0.03 | 59 | 1032.8 |
| 20260902192236 | 21 | 45 | 0.0 | 0.0 | 0.00 | 0.00 | 0.03 | 63 | 1032.8 |
| 20260902191736 | 21 | 30 | 0.0 | 0.0 | 0.00 | 0.00 | 0.03 | 61 | 1032.8 |
| 20260902191237 | 21 | 2 | 3.2 | 3.2 | 0.00 | 0.00 | 0.03 | 64 | 1032.8 |
| 20260902190737 | 21 | 54 | 3.2 | 3.2 | 0.00 | 0.00 | 0.03 | 63 | 1032.8 |
| 20260902190236 | 21 | 12 | 3.2 | 3.2 | 0.00 | 0.00 | 0.03 | 59 | 1032.8 |
| 20260902185737 | 21 | 266 | 1.6 | 1.6 | 0.00 | 0.00 | 0.03 | 59 | 1032.5 |
| 20260902185236 | 22 | 6 | 0.0 | 0.0 | 0.00 | 0.00 | 0.03 | 59 | 1032.5 |
| 20260902184737 | 21 | 234 | 0.0 | 0.0 | 0.00 | 0.00 | 0.03 | 60 | 1032.5 |
| 20260902184236 | 21 | 266 | 0.0 | 0.0 | 0.00 | 0.00 | 0.03 | 61 | 1032.5 |
| 20260902183736 | 21 | 7 | 3.2 | 3.2 | 0.00 | 0.00 | 0.03 | 63 | 1032.5 |
| 20260902183237 | 22 | 10 | 0.0 | 0.0 | 0.00 | 0.00 | 0.03 | 60 | 1032.5 |
| 20260902182737 | 22 | 320 | 0.0 | 0.0 | 0.00 | 0.00 | 0.03 | 62 | 1031.8 |
| 20260902182236 | 22 | 342 | 3.2 | 3.2 | 0.00 | 0.00 | 0.03 | 61 | 1031.8 |
| 20260902181737 | 22 | 31 | 0.0 | 0.0 | 0.00 | 0.00 | 0.03 | 60 | 1031.8 |
| 20260902181236 | 21 | 54 | 1.6 | 1.6 | 0.00 | 0.00 | 0.03 | 61 | 1031.8 |
| 20260902180737 | 22 | 352 | 3.2 | 3.2 | 0.00 | 0.00 | 0.03 | 63 | 1031.8 |
| 20260902180238 | 22 | 342 | 3.2 | 3.2 | 0.00 | 0.00 | 0.03 | 60 | 1031.8 |
| 20260902175736 | 22 | 283 | 3.2 | 3.2 | 0.00 | 0.00 | 0.03 | 62 | 1031.5 |
| 20260902175238 | 22 | 281 | 3.2 | 3.2 | 0.00 | 0.00 | 0.03 | 60 | 1031.5 |
| 20260902174737 | 22 | 306 | 3.2 | 3.2 | 0.00 | 0.00 | 0.03 | 60 | 1031.5 |
| 20260902174237 | 22 | 292 | 3.2 | 3.2 | 0.00 | 0.00 | 0.03 | 60 | 1031.5 |
| 20260902173736 | 22 | 343 | 0.0 | 0.0 | 0.00 | 0.00 | 0.03 | 59 | 1031.5 |
| 20260902173237 | 22 | 354 | 0.0 | 0.0 | 0.00 | 0.00 | 0.03 | 60 | 1031.5 |
| 20260902172737 | 22 | 16 | 0.0 | 0.0 | 0.00 | 0.00 | 0.03 | 61 | 1031.5 |
| 20260902172237 | 22 | 12 | 3.2 | 3.2 | 0.00 | 0.00 | 0.03 | 60 | 1031.5 |
| 20260902171737 | 22 | 330 | 0.0 | 0.0 | 0.00 | 0.00 | 0.03 | 61 | 1031.5 |
| 20260902171236 | 22 | 304 | 3.2 | 3.2 | 0.00 | 0.00 | 0.03 | 60 | 1031.5 |
| 20260902170737 | 22 | 6 | 3.2 | 3.2 | 0.00 | 0.00 | 0.03 | 62 | 1031.5 |
| 20260902170236 | 22 | 328 | 3.2 | 3.2 | 0.00 | 0.00 | 0.03 | 61 | 1031.5 |
| 20260902165736 | 22 | 312 | 0.0 | 0.0 | 0.00 | 0.00 | 0.03 | 60 | 1031.5 |
| 20260902165236 | 22 | 342 | 0.0 | 0.0 | 0.00 | 0.00 | 0.03 | 60 | 1031.5 |
| 20260902164739 | 22 | 2 | 3.2 | 3.2 | 0.00 | 0.00 | 0.03 | 60 | 1031.5 |
| 20260902164237 | 22 | 358 | 0.0 | 0.0 | 0.00 | 0.00 | 0.03 | 59 | 1031.5 |
| 20260902163736 | 22 | 12 | 4.8 | 4.8 | 0.00 | 0.00 | 0.03 | 58 | 1031.5 |
| 20260902163238 | 22 | 324 | 4.8 | 4.8 | 0.00 | 0.00 | 0.03 | 60 | 1031.5 |
| 20260902162737 | 22 | 8 | 3.2 | 3.2 | 0.00 | 0.00 | 0.03 | 59 | 1031.2 |
| 20260902162237 | 22 | 342 | 3.2 | 3.2 | 0.00 | 0.00 | 0.03 | 61 | 1031.2 |
| 20260902161737 | 23 | 344 | 3.2 | 3.2 | 0.00 | 0.00 | 0.03 | 60 | 1031.2 |
| 20260902161236 | 23 | 321 | 3.2 | 3.2 | 0.00 | 0.00 | 0.03 | 57 | 1031.5 |
| 20260902160736 | 23 | 338 | 3.2 | 3.2 | 0.00 | 0.00 | 0.03 | 60 | 1031.5 |
| 20260902160237 | 23 | 304 | 3.2 | 3.2 | 0.00 | 0.00 | 0.03 | 55 | 1031.5 |
| 20260902155736 | 23 | 300 | 3.2 | 3.2 | 0.00 | 0.00 | 0.03 | 56 | 1031.5 |
| 20260902155237 | 23 | 315 | 0.0 | 0.0 | 0.00 | 0.00 | 0.03 | 59 | 1031.5 |
| 20260902154736 | 23 | 334 | 1.6 | 1.6 | 0.00 | 0.00 | 0.03 | 56 | 1031.5 |
| 20260902154236 | 24 | 288 | 0.0 | 0.0 | 0.00 | 0.00 | 0.03 | 56 | 1031.5 |
| 20260902153737 | 24 | 306 | 0.0 | 0.0 | 0.00 | 0.00 | 0.03 | 57 | 1031.5 |
| 20260902153237 | 24 | 342 | 0.0 | 0.0 | 0.00 | 0.00 | 0.03 | 58 | 1031.5 |
| 20260902152737 | 24 | 324 | 0.0 | 0.0 | 0.00 | 0.00 | 0.03 | 56 | 1031.5 |
| 20260902152236 | 24 | 338 | 0.0 | 0.0 | 0.00 | 0.00 | 0.03 | 56 | 1031.5 |
| 20260902151736 | 24 | 303 | 3.2 | 3.2 | 0.00 | 0.00 | 0.03 | 57 | 1031.5 |
| 20260902151236 | 25 | 306 | 0.0 | 0.0 | 0.00 | 0.00 | 0.03 | 55 | 1031.5 |
| 20260902150739 | 25 | 312 | 0.0 | 0.0 | 0.00 | 0.00 | 0.03 | 51 | 1031.5 |
| 20260902150237 | 26 | 222 | 0.0 | 0.0 | 0.00 | 0.00 | 0.03 | 50 | 1031.5 |
| 20260902145737 | 27 | 270 | 1.6 | 1.6 | 0.00 | 0.00 | 0.03 | 44 | 1031.5 |
| 20260902145236 | 27 | 177 | 0.0 | 0.0 | 0.00 | 0.00 | 0.03 | 47 | 1031.5 |
| 20260902144736 | 27 | 204 | 0.0 | 0.0 | 0.00 | 0.00 | 0.03 | 45 | 1031.5 |
| 20260902144237 | 27 | 227 | 3.2 | 3.2 | 0.00 | 0.00 | 0.03 | 43 | 1031.5 |
| 20260902143737 | 27 | 282 | 1.6 | 1.6 | 0.00 | 0.00 | 0.03 | 43 | 1031.5 |
| 20260902143237 | 27 | 60 | 3.2 | 3.2 | 0.00 | 0.00 | 0.03 | 44 | 1031.5 |
| 20260902142738 | 27 | 246 | 1.6 | 1.6 | 0.00 | 0.00 | 0.03 | 42 | 1031.8 |
| 20260902142239 | 26 | 222 | 0.0 | 0.0 | 0.00 | 0.00 | 0.03 | 43 | 1031.8 |
| 20260902141737 | 26 | 171 | 0.0 | 0.0 | 0.00 | 0.00 | 0.03 | 46 | 1031.8 |
| 20260902141238 | 26 | 120 | 0.0 | 0.0 | 0.00 | 0.00 | 0.03 | 45 | 1031.8 |
| 20260902140744 | 26 | 24 | 0.0 | 0.0 | 0.00 | 0.00 | 0.03 | 48 | 1031.8 |
| 20260902140237 | 26 | 138 | 1.6 | 1.6 | 0.00 | 0.00 | 0.03 | 48 | 1031.8 |
| 20260902135736 | 26 | 164 | 0.0 | 0.0 | 0.00 | 0.00 | 0.03 | 46 | 1032.2 |
| 20260902135236 | 26 | 114 | 0.0 | 0.0 | 0.00 | 0.00 | 0.03 | 50 | 1032.2 |
| 20260902134737 | 26 | 192 | 0.0 | 0.0 | 0.00 | 0.00 | 0.03 | 47 | 1032.2 |
| 20260902134236 | 26 | 228 | 0.0 | 0.0 | 0.00 | 0.00 | 0.03 | 45 | 1032.2 |
| 20260902133736 | 26 | 162 | 0.0 | 0.0 | 0.00 | 0.00 | 0.03 | 48 | 1032.2 |
| 20260902133236 | 26 | 131 | 0.0 | 0.0 | 0.00 | 0.00 | 0.03 | 42 | 1032.2 |
| 20260902132736 | 27 | 85 | 3.2 | 3.2 | 0.00 | 0.00 | 0.03 | 47 | 1032.2 |
| 20260902132236 | 26 | 222 | 3.2 | 3.2 | 0.00 | 0.00 | 0.03 | 45 | 1032.2 |